📊 Raw Sensor Data
Showing records 50751 to 50775 of 85,138 total
| ID | Distance (ft) | Battery V | Battery A | Int Temp (°F) | Int Humid (%) | Ext Temp (°F) | Solar V | RSSI | SNR | Time Stamp |
|---|---|---|---|---|---|---|---|---|---|---|
| 34400 | 15.6 | 4.00 | 5 | 56 | 34 | 59 | 5.10 | -75 | 8 | 03/08/2025 09:30 AM |
| 34399 | 15.6 | 4.00 | 0 | 54 | 34 | 57 | 5.10 | -76 | 8 | 03/08/2025 09:15 AM |
| 34398 | 15.6 | 4.00 | 0 | 51 | 34 | 56 | 5.10 | -76 | 8 | 03/08/2025 09:00 AM |
| 34397 | -- | 4.00 | 5 | 49 | 34 | 54 | 5.10 | -77 | 8 | 03/08/2025 08:45 AM |
| 34396 | -- | 4.00 | 0 | 47 | 34 | 52 | 5.10 | -76 | 9 | 03/08/2025 08:30 AM |
| 34395 | -- | 4.00 | 5 | 44 | 34 | 51 | 5.10 | -76 | 8 | 03/08/2025 08:16 AM |
| 34394 | 15.4 | 4.00 | 5 | 40 | 35 | 47 | 5.10 | -76 | 8 | 03/08/2025 08:00 AM |
| 34393 | 15.4 | 4.08 | 0 | 38 | 35 | 43 | 5.10 | -75 | 8 | 03/08/2025 07:45 AM |
| 34392 | 15.4 | 4.00 | 0 | 36 | 36 | 40 | 5.00 | -75 | 8 | 03/08/2025 07:30 AM |
| 34391 | -- | 4.12 | 44 | 34 | 36 | 41 | 4.50 | -75 | 8 | 03/08/2025 07:15 AM |
| 34390 | -- | 4.04 | 32 | 32 | 37 | 40 | 4.50 | -76 | 9 | 03/08/2025 07:00 AM |
| 34389 | -- | 4.02 | -5 | 31 | 37 | 36 | 4.50 | -75 | 9 | 03/08/2025 06:45 AM |
| 34388 | 15.2 | 3.97 | -9 | 31 | 38 | 33 | 4.50 | -75 | 9 | 03/08/2025 06:30 AM |
| 34387 | 15.2 | 3.98 | -5 | 31 | 38 | 35 | 1.00 | -76 | 9 | 03/08/2025 06:15 AM |
| 34386 | 15.2 | 3.98 | -5 | 31 | 38 | 34 | 0.10 | -75 | 8 | 03/08/2025 06:00 AM |
| 34385 | -- | 3.92 | -5 | 31 | 38 | 33 | 0.00 | -76 | 9 | 03/08/2025 05:45 AM |
| 34384 | 15.2 | 3.93 | -5 | 31 | 38 | 35 | 0.10 | -75 | 8 | 03/08/2025 05:30 AM |
| 34383 | 15.3 | 3.93 | -5 | 31 | 38 | 35 | 0.00 | -74 | 9 | 03/08/2025 05:15 AM |
| 34382 | 15.2 | 3.93 | -5 | 32 | 38 | 35 | 0.00 | -74 | 8 | 03/08/2025 05:00 AM |
| 34381 | 15.2 | 3.93 | -5 | 32 | 38 | 36 | 0.00 | -75 | 8 | 03/08/2025 04:45 AM |
| 34380 | 15.3 | 3.93 | -5 | 32 | 38 | 36 | 0.00 | -75 | 8 | 03/08/2025 04:30 AM |
| 34379 | 15.3 | 3.93 | -5 | 32 | 38 | 35 | 0.00 | -74 | 8 | 03/08/2025 04:15 AM |
| 34378 | 15.2 | 3.93 | -5 | 32 | 38 | 35 | 0.00 | -75 | 9 | 03/08/2025 04:00 AM |
| 34377 | 15.2 | 3.93 | -34 | 33 | 38 | 35 | 0.00 | -75 | 8 | 03/08/2025 03:45 AM |
| 34376 | 15.2 | 3.99 | -5 | 33 | 39 | 35 | 0.00 | -74 | 9 | 03/08/2025 03:30 AM |